Temperature
25 24 24 24 24 26 27 28 29 29 30 30 30 31 30 27 26 23 22 22 21 20 21 20 20 20 20 20 20 20 20 20 20 19 19 19 19 19 19 19 19 19 19 19 19 19 19 19 19
25 25 24 25 25 27 27 28 29 30 30 30 30 30 29 27 25 22 22 22 20 20 21 21 20 20 20 20 20 20 20 19 19 19 19 19 19 19 19 19 19 19 19 19 19 19 19 19 19
25 25 26 26 27 27 28 29 30 30 30 30 30 29 28 27 25 22 22 21 20 20 20 21 20 20 20 20 20 20 19 19 19 19 19 19 19 19 19 19 19 19 19 18 18 18 18 18 19
26 26 28 27 28 29 29 30 30 30 30 30 30 29 27 26 25 23 22 21 20 20 20 21 20 20 20 20 20 19 19 19 19 19 19 19 19 19 19 19 19 19 19 18 18 18 18 18 18
27 27 27 27 29 30 31 31 31 30 31 30 29 28 26 25 24 23 22 21 20 20 20 21 20 20 20 20 20 19 19 19 19 19 19 19 19 19 19 19 19 19 19 18 18 18 18 18 18
28 28 25 26 29 30 31 31 31 31 31 30 30 28 26 25 23 22 22 22 21 20 20 21 20 20 20 19 19 19 19 19 19 19 19 19 19 19 19 19 19 19 19 18 18 18 18 18 18
27 26 25 27 29 30 31 31 31 31 31 30 30 28 26 24 23 23 22 22 22 20 20 20 20 20 20 19 19 19 19 19 19 19 19 19 19 19 18 18 18 19 19 18 18 18 18 18 18
26 27 28 28 28 29 31 31 31 31 30 30 30 29 27 24 23 23 23 23 22 21 20 20 20 20 20 20 19 19 19 19 19 19 19 19 18 18 18 18 18 19 19 18 18 18 18 18 18
27 28 26 27 28 29 30 31 31 30 30 30 29 28 26 25 24 23 23 23 22 22 21 20 19 19 19 19 19 19 19 19 19 19 19 18 18 18 18 18 18 19 19 19 18 18 18 19 19
29 27 26 28 29 29 30 30 30 30 30 29 29 27 26 25 24 24 23 23 23 22 21 21 20 19 19 19 19 19 19 19 19 19 19 18 18 17 17 17 18 19 19 19 19 19 19 19 19
29 28 27 29 29 30 30 30 30 29 28 28 29 27 26 25 25 24 24 24 23 23 22 21 21 20 19 19 19 19 19 19 18 18 18 18 18 18 18 18 19 19 19 19 19 19 19 19 18
29 29 29 29 29 29 29 29 29 28 28 28 29 28 27 26 26 25 25 24 24 23 23 22 21 20 20 19 19 19 19 19 18 18 18 18 18 18 18 18 18 18 18 18 18 19 19 19 19
29 29 29 29 29 29 29 29 28 28 28 28 28 28 27 27 26 26 26 25 24 23 23 22 22 21 20 20 19 19 19 19 19 19 18 18 18 18 19 18 18 18 18 18 18 19 19 19 19
28 28 29 29 29 29 29 29 28 27 27 28 28 28 27 27 26 26 26 26 25 24 23 23 22 22 21 20 20 19 19 19 19 19 19 19 19 19 19 19 19 18 19 19 19 19 19 19 19
29 28 29 29 29 29 29 27 27 27 27 27 27 26 26 26 26 25 25 25 25 25 24 23 23 22 22 21 20 20 19 19 19 19 19 19 19 19 19 19 19 19 19 19 19 19 19 19 18
29 28 27 29 29 29 28 25 26 26 26 26 26 26 25 25 25 24 24 25 25 25 24 24 23 22 22 22 21 20 20 19 19 19 19 19 19 19 19 19 19 19 19 19 19 19 19 18 18
28 27 26 27 27 26 26 24 25 25 26 26 26 26 25 25 24 23 23 23 24 24 24 24 23 23 22 22 21 20 20 20 19 19 19 19 19 19 19 19 19 19 19 18 18 18 18 18 18
26 26 26 25 25 25 24 24 25 25 25 25 25 25 25 24 23 22 22 22 22 23 23 23 23 23 22 22 21 20 20 20 19 19 19 19 19 19 19 19 18 18 18 18 18 18 18 18 18
26 26 26 26 26 26 25 24 24 24 25 25 24 24 24 23 22 21 21 21 21 21 22 22 23 22 22 21 21 20 20 19 19 19 19 19 19 19 19 18 18 18 18 18 18 18 17 17 17
26 25 25 26 26 26 25 25 25 24 24 23 23 23 22 21 21 20 20 20 20 20 20 21 21 22 22 21 21 20 20 19 19 19 18 18 18 18 18 18 18 18 18 17 17 17 17 17 17
24 24 23 23 24 24 24 24 24 24 23 22 22 21 21 20 20 19 19 19 18 18 19 19 20 21 21 21 21 20 19 19 19 19 18 18 18 18 18 18 18 18 17 17 17 17 17 17 17
22 23 23 23 22 22 23 22 23 22 20 20 19 20 20 19 19 18 18 18 17 17 17 18 19 20 20 21 21 20 19 19 19 19 18 18 18 18 18 18 17 17 17 17 17 17 17 17 17
22 23 23 22 22 22 22 22 21 19 17 17 17 18 18 18 18 17 17 16 16 16 16 17 18 18 19 20 20 20 19 19 19 18 18 18 18 17 17 17 17 17 17 17 17 17 16 16 16
23 23 23 23 22 20 21 21 18 16 16 16 16 16 17 16 16 16 16 15 15 15 16 16 17 17 18 19 19 19 19 18 18 18 18 17 17 17 17 17 17 17 17 17 16 16 16 16 16
21 20 20 20 20 19 20 18 15 15 16 16 16 15 15 15 15 15 14 14 14 14 15 15 16 16 17 17 18 18 18 17 17 17 17 17 17 17 17 16 16 16 16 16 16 16 16 16 16
20 20 18 17 18 18 18 15 13 14 15 15 14 14 13 13 13 13 13 13 13 14 14 14 15 15 15 16 16 16 16 16 16 15 15 16 16 16 16 16 16 16 16 16 16 16 16 16 16
18 18 19 18 18 18 16 14 14 14 14 13 13 12 12 12 12 12 13 13 13 13 13 13 14 14 14 14 15 15 15 15 14 14 14 14 14 14 15 15 15 15 16 16 16 16 16 15 15
19 18 18 17 16 15 15 13 12 12 12 12 12 11 11 11 12 12 12 12 12 13 13 13 13 13 13 14 14 14 14 14 14 14 14 14 14 14 14 15 15 16 16 16 16 16 16 15 15
17 17 17 17 16 14 13 12 11 11 11 11 11 10 10 11 11 11 12 12 12 12 13 13 13 13 13 13 13 13 13 13 13 13 13 14 14 14 15 15 15 15 16 16 16 16 15 15 15
18 17 17 15 15 14 13 11 11 11 10 10 10 10 10 11 11 11 12 12 12 12 12 12 13 13 13 13 13 13 13 13 13 14 14 14 14 15 15 15 15 16 16 16 16 16 15 15 15
Wind_Speed
16 12 9 3 3 2 10 8 8 8 11 11 9 7 12 14 8 7 7 12 18 18 18 17 16 15 14 13 12 11 11 11 12 12 11 11 10 10 10 9 9 9 9 8 8 8 8 8 8
13 6 4 3 2 7 9 8 9 11 8 6 10 14 15 13 12 10 9 14 18 18 17 16 16 15 13 12 11 11 11 11 11 12 11 11 10 10 9 9 9 9 9 8 8 8 8 8 7
12 8 4 3 3 8 8 8 9 9 8 8 8 15 12 7 11 10 11 17 18 16 16 18 16 14 13 11 10 10 11 11 11 11 11 10 10 10 10 10 10 10 9 9 8 8 7 7 7
7 5 4 1 7 8 7 7 7 5 6 7 8 10 11 9 8 14 15 17 17 16 17 18 16 14 12 11 10 10 11 11 11 10 10 10 9 9 9 9 10 10 10 9 9 8 7 6 6
5 4 3 1 6 7 7 8 5 5 9 9 11 15 12 12 16 16 14 17 17 16 17 17 15 14 12 11 10 10 10 11 10 10 9 9 9 9 9 9 9 9 9 8 8 7 7 7 7
4 2 2 2 5 6 5 5 5 6 7 6 9 14 10 12 14 14 13 14 16 16 16 17 15 13 12 11 11 10 10 10 10 9 9 8 8 8 9 10 10 9 8 7 6 6 6 7 7
5 4 2 2 4 4 5 4 6 6 9 11 7 10 11 13 12 12 12 11 14 16 15 15 15 13 12 11 11 11 10 10 10 9 9 8 8 8 9 10 9 8 7 6 5 4 5 5 5
4 5 4 1 5 3 4 3 5 7 9 7 8 10 10 13 13 11 11 11 12 15 15 14 15 15 13 12 12 11 11 10 10 10 9 9 8 8 9 10 9 8 6 5 3 2 2 4 4
4 5 5 4 4 3 3 3 4 2 5 6 12 14 15 15 14 11 8 9 10 12 13 14 14 14 14 14 14 13 11 10 10 10 10 10 10 11 10 10 11 8 6 5 3 3 4 5 7
4 3 4 4 5 4 3 4 3 2 7 7 9 13 15 13 13 11 10 10 11 11 12 12 12 12 12 11 13 12 12 11 11 11 12 11 11 10 10 14 11 9 7 6 6 7 8 9 9
5 3 2 3 7 5 3 3 5 7 7 6 4 11 13 12 12 11 11 10 11 10 10 11 12 11 10 6 10 8 8 10 11 10 13 12 10 9 13 10 9 9 9 9 9 10 11 12 11
5 5 5 5 5 4 4 3 4 8 6 7 6 5 11 11 11 11 11 11 11 11 10 10 11 11 10 9 7 6 6 6 7 10 13 11 5 5 8 9 12 11 10 10 9 9 12 9 9
7 5 3 4 4 5 6 3 0 4 5 6 6 1 7 10 8 8 8 10 11 11 11 10 10 11 10 9 7 7 6 7 9 11 13 11 4 5 4 4 8 9 10 6 4 5 2 2 5
5 6 7 8 8 7 6 4 2 2 3 4 5 5 4 4 3 4 4 6 10 11 12 11 10 10 11 10 8 7 6 7 7 8 11 13 8 4 4 4 3 3 5 8 6 3 3 1 3
7 10 11 11 11 7 4 3 0 3 2 4 6 8 8 5 3 4 4 3 2 9 10 11 11 10 11 11 10 7 6 8 5 6 10 11 10 6 4 4 5 3 5 6 4 1 3 3 3
12 12 11 8 6 4 6 4 4 2 3 5 5 6 5 5 7 8 8 8 6 1 5 10 11 10 9 8 9 6 6 6 5 7 8 9 10 9 5 2 4 4 4 2 2 2 2 2 2
8 7 7 5 4 5 5 0 5 3 2 2 2 3 4 5 8 9 9 9 9 6 3 5 9 9 8 8 7 6 6 6 5 6 6 6 7 9 6 3 2 3 2 1 2 1 1 1 1
11 11 10 6 1 4 6 3 4 3 2 2 3 3 4 7 9 9 9 10 9 9 7 4 5 8 9 8 7 5 5 6 4 4 5 6 4 6 6 4 2 2 3 1 1 0 1 1 1
14 14 15 10 3 5 7 5 3 3 3 1 2 5 7 9 10 11 11 10 10 10 10 8 4 6 6 6 7 7 6 5 5 4 5 6 3 4 5 5 3 3 3 2 1 1 1 1 2
13 14 15 12 9 9 10 8 3 3 4 4 6 7 9 11 11 10 10 11 12 11 11 11 9 5 6 6 7 7 8 6 6 5 4 6 5 4 4 5 4 3 2 2 2 1 0 1 2
13 13 14 15 15 13 14 13 8 6 6 6 6 7 9 10 11 11 11 11 11 12 12 12 12 10 7 7 6 7 7 6 6 5 4 3 4 4 3 3 4 4 4 4 4 4 5 4 4
13 14 15 16 14 11 12 11 5 3 9 11 11 10 11 10 10 10 10 11 12 12 12 14 14 12 8 5 7 9 8 7 6 6 5 5 4 4 4 3 3 4 4 5 6 6 5 6 6
13 15 17 18 16 15 14 12 2 7 10 11 12 13 13 13 12 12 12 11 12 12 12 12 13 12 9 5 4 8 8 7 6 7 7 5 4 3 3 2 2 3 3 5 6 5 5 6 6
15 16 17 15 11 12 10 10 4 9 12 13 13 15 16 16 14 13 13 11 11 11 11 11 11 11 10 6 1 4 7 8 8 8 8 5 4 3 2 1 0 2 2 3 4 4 5 5 6
15 14 7 6 3 3 6 4 7 13 15 15 15 16 17 17 16 15 14 13 12 12 12 12 11 10 10 9 7 5 5 6 6 7 7 6 4 3 3 1 1 2 2 2 1 2 3 5 5
13 12 7 6 7 9 5 5 6 15 17 17 17 17 18 17 16 15 14 13 12 13 12 12 11 10 10 9 9 8 8 6 5 6 5 5 4 2 1 1 2 2 2 1 1 0 3 3 3
11 10 9 7 9 6 4 4 5 17 20 20 20 19 19 18 16 15 14 13 12 12 11 11 11 10 10 9 8 8 7 7 6 6 5 4 3 2 1 3 3 3 3 2 1 2 3 2 1
10 9 6 6 6 5 5 6 10 19 20 19 19 19 18 17 15 14 13 13 12 11 10 11 11 10 9 9 7 7 7 6 5 5 4 3 1 1 1 3 5 5 5 4 2 1 1 2 0
12 11 8 5 4 4 4 4 9 13 14 15 15 15 16 16 15 13 12 11 10 11 11 11 10 9 9 8 7 7 6 6 6 5 4 3 1 0 2 4 4 5 7 7 5 3 3 2 3
11 10 9 5 5 4 2 4 9 10 11 12 12 13 13 14 13 12 11 11 10 11 10 10 9 9 8 7 6 6 6 5 5 5 4 3 2 3 4 4 5 5 6 6 7 6 4 4 4
Wind_Direction
284 252 235 252 272 95 72 74 68 51 54 48 38 47 65 57 49 86 141 144 125 126 133 140 140 137 133 130 126 124 123 121 118 113 108 105 101 97 96 94 92 92 92 91 92 95 98 102 110
290 276 256 246 278 80 76 69 68 61 50 52 45 39 59 66 80 106 149 125 127 129 139 142 143 141 138 136 133 130 128 126 121 117 113 110 106 102 97 94 91 91 93 94 93 94 98 102 108
267 272 258 253 75 78 87 85 80 69 43 39 64 64 50 55 98 127 133 130 131 133 139 137 147 146 145 143 141 139 135 131 125 121 118 115 111 106 100 95 90 87 87 91 93 94 98 105 113
284 270 243 317 84 87 94 101 92 95 81 53 60 72 66 50 89 126 136 141 131 134 132 140 150 150 151 151 149 145 141 137 133 129 125 122 118 114 108 101 95 89 85 84 86 88 95 107 116
253 264 314 42 86 84 79 85 84 79 68 55 72 84 78 74 95 121 145 139 135 137 134 145 152 156 158 158 155 152 150 147 144 140 135 131 126 123 120 113 103 95 88 83 81 85 93 107 114
292 287 9 359 83 81 89 96 86 68 71 67 80 92 94 107 114 136 149 141 144 138 139 145 155 161 164 163 162 161 159 157 154 150 144 139 134 132 130 124 117 106 97 88 80 82 92 105 110
316 302 225 195 95 79 62 46 67 70 60 46 45 93 111 115 124 144 148 153 144 141 141 147 160 166 170 170 170 170 169 166 163 158 151 146 143 140 137 133 127 118 110 100 91 88 97 110 116
307 291 292 104 94 77 61 50 51 49 70 53 42 74 112 123 139 147 153 156 146 147 149 157 164 169 172 175 177 176 176 174 170 165 160 156 155 155 152 149 138 133 128 121 118 120 132 141 151
267 284 340 12 75 66 33 30 61 33 81 76 72 75 103 128 141 145 152 156 158 158 158 164 167 170 172 174 174 176 180 180 175 173 172 173 182 179 178 159 146 151 152 157 173 200 210 201 199
246 307 9 343 46 49 10 11 358 32 56 56 87 105 119 139 146 154 165 174 170 167 166 167 168 164 168 177 160 176 182 178 191 186 181 199 212 198 162 143 154 163 174 191 212 226 231 221 212
288 313 320 344 36 8 352 11 7 26 45 17 45 125 138 153 156 165 176 181 172 173 172 167 168 165 163 153 154 176 178 177 199 194 189 204 210 166 141 156 159 179 193 209 213 226 230 219 209
291 312 325 4 29 322 321 354 21 35 23 350 352 136 152 165 171 178 183 178 168 173 176 173 168 167 168 160 162 169 171 181 189 195 203 201 204 192 170 169 175 185 201 213 198 221 227 217 189
280 294 297 293 280 279 289 289 55 41 1 348 343 91 155 168 175 182 184 169 167 169 174 182 174 173 172 162 162 176 177 182 192 192 206 200 188 210 167 180 172 186 187 170 246 253 192 54 52
312 312 285 270 263 256 259 272 257 65 360 7 5 22 68 103 166 179 194 175 168 169 178 178 180 178 171 166 178 180 173 178 193 186 204 195 186 204 147 194 145 209 167 170 221 230 106 68 66
279 268 263 250 245 240 246 266 329 54 38 30 20 41 40 55 37 37 8 351 181 171 175 172 179 185 182 177 181 175 167 176 188 184 212 197 183 189 156 201 154 207 186 187 227 200 118 114 112
259 257 261 263 242 230 234 223 108 66 59 49 29 41 26 30 35 33 9 359 351 324 185 171 179 185 185 174 171 168 173 169 174 181 213 210 182 182 166 179 147 186 175 184 118 40 77 125 183
275 282 302 339 11 325 294 240 135 128 124 101 58 29 30 29 40 30 10 352 342 328 299 181 179 182 181 171 170 169 169 161 168 179 191 217 190 179 148 134 139 163 131 130 132 176 175 200 198
322 316 306 303 306 270 269 233 167 142 114 63 52 18 41 24 31 27 9 352 342 328 313 272 197 187 184 169 172 167 164 164 164 167 173 203 192 157 133 126 140 127 119 87 26 94 65 17 327
314 306 301 301 273 271 270 248 187 140 122 90 37 24 28 28 19 25 11 359 348 336 325 311 259 209 196 174 172 167 168 162 158 163 170 181 176 130 116 125 122 96 107 124 275 348 323 298 314
316 313 312 313 327 315 298 279 234 168 133 70 36 22 26 17 6 12 7 1 355 349 339 326 316 271 218 198 188 177 168 168 162 167 161 161 168 161 143 141 144 144 147 180 235 251 288 293 275
327 324 330 324 319 308 298 279 243 202 134 100 56 32 24 15 3 1 1 358 351 348 345 335 322 308 267 210 189 186 168 162 159 161 149 140 146 149 151 152 159 174 177 197 216 221 214 226 254
318 330 321 306 298 288 278 278 266 113 68 40 21 19 21 14 6 0 1 358 352 349 346 339 333 323 307 249 194 179 174 171 168 160 152 151 151 153 159 169 175 193 195 200 215 220 215 215 231
316 313 297 285 278 276 276 273 322 47 40 25 10 5 10 7 5 3 3 359 354 354 349 344 339 335 332 318 202 184 179 167 157 147 144 142 137 134 152 174 195 216 207 213 223 228 213 212 221
327 313 294 273 258 260 277 278 52 25 15 11 6 5 6 2 360 3 3 3 1 1 356 353 352 353 353 357 21 170 166 152 147 137 135 124 112 94 80 85 270 273 243 229 228 216 215 219 226
345 341 333 336 311 293 346 16 51 17 14 9 7 7 5 1 1 3 7 8 7 3 1 1 4 9 10 25 37 69 104 119 129 125 123 122 116 110 112 136 214 263 260 245 218 216 223 222 221
350 356 355 329 325 324 17 65 50 9 5 7 8 7 4 2 1 5 11 11 6 5 7 9 12 20 25 37 50 61 69 77 90 101 110 113 112 115 133 184 223 232 245 271 235 257 259 242 227
357 356 332 311 311 318 44 72 21 4 2 4 5 5 4 2 3 7 12 12 7 8 12 14 22 30 34 43 55 63 71 79 87 89 91 97 106 137 187 214 219 210 200 246 259 190 265 235 247
16 353 346 351 345 345 29 37 359 352 354 358 3 2 360 360 5 10 11 10 8 11 15 20 27 33 36 39 48 60 60 67 76 82 83 89 113 154 201 226 221 201 184 199 225 291 336 358 263
16 13 360 348 10 356 359 33 5 352 353 356 0 0 1 4 4 8 10 9 11 19 22 21 22 29 34 39 46 50 52 53 62 68 69 63 34 344 273 264 250 205 191 190 170 217 215 255 266
35 16 8 9 11 15 27 39 8 356 356 358 357 357 -0 2 4 7 9 10 16 20 19 17 18 25 30 34 40 44 44 46 43 34 25 10 324 295 278 269 269 236 193 182 172 191 190 224 258
Height
1490 1490 1491 1493 1494 1493 1497 1492 1487 1486 1485 1487 1486 1485 1487 1494 1501 1512 1512 1513 1514 1514 1517 1520 1522 1525 1528 1530 1532 1534 1535 1537 1538 1539 1540 1541 1542 1543 1544 1545 1546 1547 1548 1548 1549 1550 1551 1552 1553
1490 1493 1494 1494 1497 1504 1503 1492 1490 1489 1489 1488 1488 1488 1490 1497 1503 1508 1511 1514 1515 1516 1518 1521 1524 1526 1529 1531 1533 1535 1536 1538 1539 1540 1541 1542 1543 1544 1545 1546 1547 1548 1548 1549 1550 1551 1551 1552 1553
1491 1493 1494 1493 1495 1502 1501 1491 1490 1491 1490 1490 1490 1493 1497 1501 1505 1508 1512 1514 1516 1518 1520 1522 1525 1527 1530 1532 1534 1536 1537 1539 1540 1541 1542 1544 1545 1546 1546 1547 1548 1549 1549 1550 1551 1551 1552 1553 1554
1495 1495 1492 1494 1496 1492 1490 1489 1489 1491 1491 1491 1491 1495 1501 1505 1505 1508 1512 1515 1517 1519 1521 1524 1526 1529 1531 1533 1535 1537 1538 1539 1541 1542 1543 1545 1545 1546 1547 1548 1548 1549 1550 1551 1551 1552 1553 1554 1555
1496 1494 1495 1498 1494 1487 1486 1488 1489 1490 1491 1492 1494 1498 1504 1507 1508 1510 1513 1516 1518 1521 1522 1525 1527 1530 1532 1534 1535 1537 1539 1540 1541 1543 1544 1545 1546 1547 1547 1548 1549 1550 1551 1551 1552 1553 1553 1554 1555
1497 1493 1506 1508 1495 1488 1487 1488 1490 1490 1491 1492 1493 1498 1505 1509 1510 1512 1515 1518 1520 1522 1523 1525 1528 1530 1532 1534 1536 1537 1539 1541 1542 1543 1545 1546 1546 1547 1548 1548 1549 1550 1551 1552 1553 1554 1554 1555 1556
1499 1497 1505 1501 1495 1493 1489 1489 1489 1491 1492 1494 1495 1498 1505 1509 1511 1514 1516 1519 1521 1523 1524 1526 1528 1530 1532 1534 1536 1538 1539 1541 1542 1543 1545 1546 1547 1548 1548 1549 1549 1550 1551 1553 1553 1554 1555 1556 1557
1499 1496 1496 1495 1498 1497 1490 1490 1492 1492 1494 1497 1497 1499 1505 1509 1512 1515 1517 1520 1522 1524 1525 1526 1528 1530 1532 1534 1536 1538 1539 1541 1542 1544 1545 1546 1547 1548 1549 1549 1550 1551 1552 1553 1554 1555 1556 1557 1558
1499 1499 1505 1499 1496 1496 1492 1492 1493 1495 1495 1497 1499 1502 1506 1509 1512 1515 1518 1520 1523 1524 1526 1527 1529 1531 1532 1534 1536 1537 1539 1541 1542 1543 1545 1546 1547 1548 1549 1549 1550 1551 1552 1553 1554 1555 1557 1558 1559
1498 1503 1505 1496 1492 1494 1494 1494 1495 1495 1497 1499 1501 1504 1507 1510 1513 1515 1518 1520 1522 1524 1526 1528 1530 1531 1533 1535 1536 1537 1539 1540 1542 1543 1545 1546 1548 1549 1550 1550 1551 1552 1552 1554 1555 1556 1557 1558 1559
1495 1498 1498 1494 1494 1495 1495 1496 1497 1497 1501 1502 1502 1504 1507 1510 1512 1515 1517 1518 1520 1523 1525 1527 1529 1531 1532 1534 1535 1537 1538 1540 1542 1544 1545 1547 1548 1550 1550 1551 1551 1551 1552 1553 1555 1557 1557 1558 1559
1497 1496 1496 1495 1497 1498 1497 1498 1499 1501 1504 1503 1503 1503 1505 1508 1511 1513 1514 1516 1519 1521 1524 1526 1528 1530 1531 1533 1534 1536 1537 1539 1541 1543 1545 1546 1548 1550 1550 1550 1550 1551 1552 1553 1556 1557 1558 1560 1562
1497 1496 1497 1497 1498 1498 1498 1498 1500 1502 1503 1503 1503 1503 1504 1506 1509 1511 1513 1515 1517 1519 1522 1525 1527 1528 1530 1531 1533 1534 1536 1537 1539 1541 1543 1546 1548 1549 1551 1551 1551 1552 1553 1555 1556 1557 1559 1560 1561
1498 1497 1497 1497 1496 1496 1497 1498 1499 1502 1503 1503 1503 1503 1504 1506 1508 1511 1512 1514 1515 1517 1520 1522 1525 1527 1528 1529 1531 1533 1535 1536 1539 1540 1542 1545 1546 1548 1550 1551 1552 1553 1555 1555 1556 1557 1558 1559 1560
1497 1497 1495 1493 1493 1493 1495 1500 1500 1502 1503 1503 1504 1504 1505 1507 1508 1509 1511 1513 1514 1516 1518 1520 1522 1524 1526 1527 1529 1531 1533 1534 1537 1539 1541 1543 1545 1547 1548 1550 1550 1552 1554 1555 1556 1557 1558 1559 1559
1493 1494 1498 1490 1489 1491 1498 1506 1502 1502 1503 1505 1506 1506 1507 1508 1508 1509 1510 1511 1513 1514 1516 1517 1519 1521 1524 1526 1527 1529 1531 1532 1534 1536 1539 1542 1543 1545 1547 1549 1549 1551 1553 1554 1555 1556 1557 1558 1559
1494 1501 1501 1497 1493 1496 1499 1506 1502 1502 1503 1505 1506 1507 1508 1508 1509 1510 1510 1510 1511 1512 1513 1515 1516 1518 1520 1522 1524 1527 1528 1530 1532 1534 1536 1539 1541 1543 1544 1546 1548 1549 1551 1552 1554 1555 1556 1557 1558
1507 1503 1501 1502 1499 1500 1503 1504 1502 1502 1503 1505 1506 1508 1508 1510 1511 1511 1511 1510 1510 1511 1512 1513 1513 1515 1517 1519 1521 1523 1525 1527 1529 1531 1533 1536 1539 1541 1542 1543 1546 1547 1549 1550 1552 1553 1554 1555 1556
1503 1503 1503 1499 1497 1499 1500 1502 1501 1503 1504 1506 1507 1508 1509 1511 1512 1511 1511 1510 1510 1509 1509 1510 1511 1511 1513 1514 1515 1517 1520 1522 1525 1527 1530 1532 1535 1537 1538 1540 1543 1544 1546 1548 1550 1551 1552 1554 1555
1505 1507 1506 1499 1496 1499 1500 1500 1500 1502 1505 1508 1509 1510 1511 1513 1513 1512 1511 1510 1509 1508 1507 1506 1507 1508 1508 1509 1510 1511 1514 1517 1520 1523 1526 1528 1531 1533 1535 1537 1539 1541 1543 1545 1547 1548 1549 1551 1552
1513 1513 1513 1511 1504 1502 1505 1505 1502 1501 1505 1510 1512 1513 1514 1515 1515 1514 1512 1511 1509 1507 1505 1504 1503 1503 1504 1504 1505 1507 1508 1511 1515 1518 1521 1524 1527 1529 1531 1533 1535 1538 1540 1542 1544 1545 1546 1547 1549
1521 1514 1514 1512 1515 1514 1510 1518 1504 1504 1511 1515 1517 1516 1516 1516 1515 1514 1512 1510 1508 1506 1503 1501 1499 1498 1498 1499 1499 1500 1501 1504 1507 1512 1515 1519 1522 1525 1527 1530 1532 1534 1536 1538 1540 1541 1542 1543 1544
1519 1514 1512 1510 1511 1514 1510 1514 1515 1514 1521 1523 1523 1521 1519 1518 1516 1514 1512 1510 1507 1504 1501 1499 1496 1494 1494 1494 1494 1495 1496 1498 1503 1507 1510 1514 1517 1520 1523 1526 1528 1530 1532 1534 1536 1537 1538 1540 1541
1517 1512 1505 1500 1505 1519 1514 1516 1529 1532 1532 1530 1528 1524 1521 1520 1517 1514 1511 1508 1506 1502 1499 1496 1493 1491 1490 1490 1490 1491 1493 1495 1499 1502 1505 1509 1512 1515 1518 1522 1524 1527 1528 1530 1532 1534 1535 1537 1538
1521 1522 1524 1522 1520 1524 1517 1525 1545 1541 1536 1535 1531 1527 1524 1521 1518 1514 1511 1508 1505 1501 1498 1495 1492 1490 1488 1488 1488 1489 1491 1493 1496 1498 1500 1504 1508 1511 1514 1517 1521 1523 1525 1527 1529 1531 1533 1534 1535
1529 1529 1540 1547 1538 1529 1524 1542 1551 1546 1542 1538 1534 1530 1526 1522 1518 1515 1512 1509 1505 1502 1499 1495 1492 1490 1489 1488 1488 1489 1490 1492 1494 1496 1499 1502 1505 1509 1511 1514 1518 1521 1523 1525 1527 1529 1531 1532 1532
1537 1536 1532 1537 1534 1534 1539 1546 1547 1546 1544 1540 1537 1533 1529 1525 1520 1517 1514 1510 1507 1504 1500 1497 1494 1492 1490 1489 1489 1490 1491 1492 1494 1496 1498 1501 1503 1507 1509 1513 1516 1519 1521 1524 1526 1527 1528 1529 1530
1540 1539 1537 1542 1549 1550 1549 1557 1562 1553 1549 1545 1541 1537 1532 1527 1522 1519 1515 1512 1509 1506 1503 1500 1497 1495 1493 1492 1492 1492 1492 1494 1495 1497 1499 1502 1504 1506 1509 1512 1515 1518 1520 1522 1524 1525 1526 1527 1528
1546 1544 1543 1542 1545 1556 1563 1570 1566 1562 1557 1551 1547 1541 1535 1530 1525 1521 1516 1513 1511 1508 1505 1503 1500 1498 1497 1496 1495 1495 1495 1496 1497 1499 1501 1502 1504 1507 1509 1511 1514 1516 1518 1521 1522 1523 1525 1525 1526
1547 1548 1547 1554 1556 1556 1565 1576 1568 1564 1559 1554 1549 1543 1539 1534 1529 1524 1520 1516 1513 1510 1508 1506 1504 1502 1501 1500 1499 1499 1499 1500 1501 1501 1503 1504 1505 1507 1509 1511 1513 1516 1518 1520 1521 1522 1523 1523 1524